OPS 4682 DEB, 38389

Orbit data source: Space-Track

OPS 4682 DEB, 38389 is space debris in LEO originally from a launch on Sat, 03 Apr 1965 UTC launched from the Air Force Western Test Range (AFWTR). Debris objects in space refer to the collection of defunct objects orbiting the Earth. Examples of debris include non-operational satellites, rocket bodies, and fragments generated from explosions, collisions, or faulty payload assembly.

Loading next visibility...
Identifier
38389, 1965-027CS
Orbit
LEO
Country
Flag of USUS
Related business
Manufacturer
Unknown
Mission
Spacecraft
Bus & Motor
Unknown
Mass
Unknown
Launch date (UTC)
1965-04-03 (61 years ago)
Launch vehicle
Unknown
Launch site
Air Force Western Test Range (AFWTR)
Object type
Payload
Rocket body
Debris
Shape & HBR
Unknown shape, 0.1 m
Radar Cross Section
Small (<0.1 m²)

Expand to show TLE details & history
Last TLE update: 2 days ago

TLE from 2 days ago
0 OPS 4682 DEB
1 38389U 65027CS  25300.55415971  .00000616  00000-0  20267-2 0  9990
2 38389  90.3114  34.9895 0011894 161.3116 198.8445 12.99929074 51581
Epoch: 2025-10-27T13:17Z
TLE epoch observation values (Epoch: 2025-10-27T13:17:59.398Z)
Latitude
-0.00005°
Longitude
159.33767°
Altitude
1,273.851 km
Speed
7.215 km/s
True Right ascension
02h 19m 57s
True Declination
0° 00' 00"
Sunlit
Object was in full shadow at epoch
Visualization orbit readout
Latitude
Unknown
Longitude
Unknown
Altitude
Unknown
Speed
Unknown
Apparent Right ascension
Unknown
Apparent Declination
Unknown
Sunlit
N/A
Visualization observer readout
Local Sidereal Time
10:37:52
Azimuth
Unknown
Elevation
Unknown
Doppler factor
Unknown
Orbital elements
Apogee altitude
1,268.576 km
Perigee altitude
1,250.408 km
Semi-major axis
7,637.629 km
Eccentricity
0.00119
Inclination
90.3114°
RAAN
34.9895°
Arg. of periapsis
161.3116°
True anomaly
198.80054°
Mean anomaly
198.8445°
Eccentric anomaly
198.82251°
Mean motion
3.25166 °/min
Orbital period
110.71 mins
BSTAR
0.0020267
Loading maneuver chart data...
Computing Atmospheric mass density...
Loading historical data...
Loading historical data...
Loading historical data...
Loading historical data...
Loading historical data...
Loading historical data...
Loading historical data...

Documentation

Showing up to 5 results
|